Location: Newark
(49.8969°N, 3.3422°E)
Time: 22:52:17
(UTC+00:00)

Tiros 1 - Pass Details

Date: 23 January 2021
Orbit: 630 x 664 km, 48.4° (Epoch: 08 March)

Event Time Altitude Azimuth Distance (km) Brightness Sun altitude
Rises 17:28:20 0° 208° (SSW) 2,922 11.3 -9.9°
Reaches altitude 10° 17:31:07 10° 192° (SSW) 2,012 10.1 -10.3°
Maximum altitude 17:34:34 21° 144° (SE) 1,419 8.7 -10.9°
Enters shadow 17:37:25 13° 100° (E) 1,841 8.9 -11.3°
